| time (UTC) | temp F | wind direction | speed MPH | gust MPH | rain 1hr in | rain 24hr in | rain mn in | humidity % | barometer mb |
| 20260507081516 | 44 | 32 | 0.0 | 1.0 | 0.00 | 0.00 | 0.00 | 91 | 1017.9 |
| 20260507080517 | 44 | 58 | 0.0 | 1.0 | 0.00 | 0.00 | 0.00 | 90 | 1017.9 |
| 20260507075517 | 44 | 43 | 0.0 | 2.0 | 0.00 | 0.00 | 0.00 | 90 | 1017.8 |
| 20260507074517 | 45 | 0.0 | 0.0 | 0.00 | 0.00 | 0.00 | 89 | 1017.7 | |
| 20260507073517 | 45 | 0.0 | 0.0 | 0.00 | 0.00 | 0.00 | 87 | 1018.1 | |
| 20260507072517 | 46 | 0.0 | 0.0 | 0.00 | 0.00 | 0.00 | 87 | 1017.9 | |
| 20260507071517 | 46 | 60 | 0.0 | 1.0 | 0.00 | 0.00 | 0.00 | 85 | 1017.9 |
| 20260507070518 | 46 | 237 | 0.0 | 1.0 | 0.00 | 0.00 | 0.00 | 85 | 1018.3 |
| 20260507065518 | 46 | 55 | 0.0 | 0.0 | 0.00 | 0.00 | 0.00 | 85 | 1018.2 |
| 20260507064518 | 46 | 50 | 0.0 | 1.0 | 0.00 | 0.00 | 0.00 | 84 | 1018.4 |
| 20260507063518 | 47 | 68 | 0.0 | 2.0 | 0.00 | 0.00 | 0.00 | 84 | 1018.3 |
| 20260507062518 | 47 | 28 | 0.0 | 1.0 | 0.00 | 0.00 | 0.00 | 83 | 1018.3 |
| 20260507061515 | 47 | 45 | 0.0 | 1.0 | 0.00 | 0.00 | 0.00 | 82 | 1018.2 |
| 20260507060536 | 48 | 44 | 0.0 | 1.0 | 0.00 | 0.00 | 0.00 | 81 | 1018.1 |
| 20260507055518 | 48 | 262 | 0.0 | 2.0 | 0.00 | 0.00 | 0.00 | 81 | 1018.0 |
| 20260507054536 | 49 | 333 | 0.0 | 0.0 | 0.00 | 0.00 | 0.00 | 81 | 1017.8 |
| 20260507053516 | 49 | 8 | 0.0 | 1.0 | 0.00 | 0.00 | 0.00 | 79 | 1017.9 |
| 20260507052516 | 49 | 348 | 0.0 | 0.0 | 0.00 | 0.00 | 0.00 | 78 | 1017.9 |
| 20260507051517 | 49 | 0.0 | 0.0 | 0.00 | 0.00 | 0.00 | 76 | 1017.8 | |
| 20260507050517 | 50 | 0.0 | 0.0 | 0.00 | 0.00 | 0.00 | 74 | 1017.8 | |
| 20260507045537 | 50 | 0.0 | 0.0 | 0.00 | 0.00 | 0.00 | 73 | 1017.8 | |
| 20260507044517 | 51 | 267 | 0.0 | 1.0 | 0.00 | 0.00 | 0.00 | 72 | 1017.7 |
| 20260507043517 | 51 | 0.0 | 0.0 | 0.00 | 0.00 | 0.00 | 71 | 1017.7 | |
| 20260507042537 | 52 | 0.0 | 0.0 | 0.00 | 0.00 | 0.00 | 70 | 1017.7 | |
| 20260507041517 | 53 | 0.0 | 0.0 | 0.00 | 0.00 | 0.00 | 67 | 1017.6 | |
| 20260507040518 | 53 | 0.0 | 0.0 | 0.00 | 0.00 | 0.00 | 64 | 1017.6 | |
| 20260507035518 | 54 | 0.0 | 0.0 | 0.00 | 0.00 | 0.00 | 62 | 1017.6 | |
| 20260507034518 | 55 | 0.0 | 0.0 | 0.00 | 0.00 | 0.00 | 61 | 1017.6 | |
| 20260507033518 | 55 | 0.0 | 0.0 | 0.00 | 0.00 | 0.00 | 60 | 1017.4 | |
| 20260507032518 | 56 | 347 | 0.0 | 1.0 | 0.00 | 0.00 | 0.00 | 58 | 1017.4 |
| 20260507031516 | 56 | 0.0 | 0.0 | 0.00 | 0.00 | 0.00 | 57 | 1017.3 | |
| 20260507030536 | 57 | 354 | 0.0 | 2.0 | 0.00 | 0.00 | 0.00 | 55 | 1017.2 |
| 20260507025518 | 57 | 350 | 1.0 | 2.0 | 0.00 | 0.00 | 0.00 | 54 | 1017.0 |
| 20260507024516 | 58 | 7 | 1.0 | 2.0 | 0.00 | 0.00 | 0.00 | 54 | 1016.9 |
| 20260507023516 | 58 | 8 | 1.0 | 3.0 | 0.00 | 0.00 | 0.00 | 53 | 1016.8 |
| 20260507022517 | 58 | 12 | 2.0 | 4.0 | 0.00 | 0.00 | 0.00 | 52 | 1016.6 |
| 20260507021517 | 59 | 21 | 2.0 | 4.0 | 0.00 | 0.00 | 0.00 | 52 | 1016.6 |
| 20260507020517 | 59 | 14 | 1.0 | 4.0 | 0.00 | 0.00 | 0.00 | 53 | 1016.6 |
| 20260507015517 | 59 | 9 | 1.0 | 3.0 | 0.00 | 0.00 | 0.00 | 52 | 1016.4 |
| 20260507014517 | 60 | 10 | 1.0 | 3.0 | 0.00 | 0.00 | 0.00 | 52 | 1016.2 |
| 20260507013518 | 60 | 18 | 2.0 | 3.0 | 0.00 | 0.00 | 0.00 | 51 | 1016.1 |
| 20260507012538 | 60 | 11 | 2.0 | 4.0 | 0.00 | 0.00 | 0.00 | 50 | 1015.9 |
| 20260507011518 | 61 | 19 | 2.0 | 4.0 | 0.00 | 0.00 | 0.00 | 49 | 1015.8 |
| 20260507010517 | 61 | 18 | 1.0 | 2.0 | 0.00 | 0.00 | 0.00 | 49 | 1015.7 |
| 20260507005518 | 62 | 51 | 1.0 | 4.0 | 0.00 | 0.00 | 0.00 | 49 | 1015.5 |
| 20260507004518 | 62 | 29 | 2.0 | 4.0 | 0.00 | 0.00 | 0.00 | 48 | 1015.4 |
| 20260507003556 | 62 | 56 | 2.0 | 7.0 | 0.00 | 0.00 | 0.00 | 48 | 1015.2 |
| 20260507002516 | 62 | 36 | 1.0 | 4.0 | 0.00 | 0.00 | 0.00 | 47 | 1015.2 |
| 20260507001516 | 62 | 58 | 3.0 | 6.0 | 0.00 | 0.00 | 0.00 | 48 | 1015.1 |
| 20260507000516 | 63 | 29 | 1.0 | 4.0 | 0.00 | 0.00 | 0.00 | 48 | 1015.2 |
| 20260506235516 | 63 | 28 | 3.0 | 6.0 | 0.00 | 0.00 | 0.00 | 47 | 1015.1 |
| 20260506234516 | 63 | 77 | 5.0 | 9.0 | 0.00 | 0.00 | 0.00 | 47 | 1015.0 |
| 20260506233516 | 63 | 28 | 1.0 | 5.0 | 0.00 | 0.00 | 0.00 | 48 | 1015.1 |
| 20260506232517 | 63 | 16 | 3.0 | 7.0 | 0.00 | 0.00 | 0.00 | 47 | 1014.9 |
| 20260506231517 | 64 | 35 | 3.0 | 7.0 | 0.00 | 0.00 | 0.00 | 47 | 1014.9 |
| 20260506230517 | 63 | 12 | 2.0 | 5.0 | 0.00 | 0.00 | 0.00 | 47 | 1014.9 |
| 20260506225517 | 63 | 29 | 3.0 | 7.0 | 0.00 | 0.00 | 0.00 | 47 | 1014.9 |
| 20260506224517 | 64 | 25 | 4.0 | 7.0 | 0.00 | 0.00 | 0.00 | 47 | 1014.8 |
| 20260506223518 | 65 | 17 | 3.0 | 8.0 | 0.00 | 0.00 | 0.00 | 47 | 1014.3 |
| 20260506222518 | 65 | 22 | 3.0 | 6.0 | 0.00 | 0.00 | 0.00 | 47 | 1014.3 |
| 20260506221518 | 65 | 42 | 3.0 | 9.0 | 0.00 | 0.00 | 0.00 | 46 | 1014.0 |
| 20260506220518 | 65 | 62 | 5.0 | 11.0 | 0.00 | 0.00 | 0.00 | 45 | 1014.0 |
| 20260506215518 | 65 | 0 | 3.0 | 7.0 | 0.00 | 0.00 | 0.00 | 46 | 1013.7 |
| 20260506214520 | 65 | 61 | 5.0 | 10.0 | 0.00 | 0.00 | 0.00 | 47 | 1013.9 |
| 20260506213515 | 66 | 36 | 3.0 | 9.0 | 0.00 | 0.00 | 0.00 | 45 | 1013.7 |
| 20260506212515 | 64 | 70 | 1.0 | 3.0 | 0.00 | 0.00 | 0.00 | 47 | 1013.6 |
| 20260506211516 | 63 | 30 | 3.0 | 8.0 | 0.00 | 0.00 | 0.00 | 48 | 1014.0 |
| 20260506210516 | 63 | 13 | 2.0 | 4.0 | 0.00 | 0.00 | 0.00 | 50 | 1014.0 |
| 20260506205516 | 63 | 18 | 2.0 | 5.0 | 0.00 | 0.00 | 0.00 | 51 | 1014.3 |
| 20260506204516 | 62 | 29 | 3.0 | 7.0 | 0.00 | 0.00 | 0.00 | 51 | 1014.5 |
| 20260506203516 | 63 | 48 | 4.0 | 11.0 | 0.00 | 0.00 | 0.00 | 50 | 1014.6 |
| 20260506202516 | 63 | 19 | 2.0 | 7.0 | 0.00 | 0.00 | 0.00 | 51 | 1014.7 |
| 20260506201517 | 63 | 78 | 4.0 | 9.0 | 0.00 | 0.00 | 0.00 | 50 | 1014.6 |
| 20260506200517 | 63 | 22 | 3.0 | 7.0 | 0.00 | 0.00 | 0.00 | 51 | 1014.9 |
| 20260506195517 | 63 | 25 | 3.0 | 8.0 | 0.00 | 0.00 | 0.00 | 51 | 1014.9 |
| 20260506194537 | 63 | 25 | 4.0 | 7.0 | 0.00 | 0.00 | 0.00 | 51 | 1014.9 |
| 20260506193537 | 64 | 19 | 2.0 | 5.0 | 0.00 | 0.00 | 0.00 | 50 | 1014.3 |
| 20260506192518 | 63 | 28 | 3.0 | 7.0 | 0.00 | 0.00 | 0.00 | 52 | 1014.8 |
| 20260506191518 | 63 | 33 | 3.0 | 8.0 | 0.00 | 0.00 | 0.00 | 51 | 1014.9 |
| 20260506190518 | 63 | 18 | 3.0 | 6.0 | 0.00 | 0.00 | 0.00 | 52 | 1014.9 |
| 20260506185518 | 62 | 32 | 4.0 | 7.0 | 0.00 | 0.00 | 0.00 | 51 | 1015.1 |
| 20260506184538 | 62 | 28 | 3.0 | 7.0 | 0.00 | 0.00 | 0.00 | 52 | 1015.3 |
| 20260506183518 | 62 | 66 | 4.0 | 11.0 | 0.00 | 0.00 | 0.00 | 51 | 1015.6 |
| 20260506182516 | 62 | 21 | 4.0 | 8.0 | 0.00 | 0.00 | 0.00 | 51 | 1015.6 |
| 20260506181516 | 62 | 54 | 3.0 | 7.0 | 0.00 | 0.00 | 0.00 | 51 | 1015.8 |
| 20260506180516 | 62 | 57 | 4.0 | 9.0 | 0.00 | 0.00 | 0.00 | 52 | 1015.9 |
| 20260506175518 | 62 | 73 | 4.0 | 9.0 | 0.00 | 0.00 | 0.00 | 51 | 1015.4 |
| 20260506174536 | 61 | 85 | 6.0 | 10.0 | 0.00 | 0.00 | 0.00 | 52 | 1015.5 |
| 20260506173557 | 61 | 41 | 4.0 | 10.0 | 0.00 | 0.00 | 0.00 | 53 | 1015.9 |
| 20260506172516 | 61 | 46 | 3.0 | 7.0 | 0.00 | 0.00 | 0.00 | 53 | 1016.2 |
| 20260506171517 | 61 | 58 | 4.0 | 9.0 | 0.00 | 0.00 | 0.00 | 54 | 1016.1 |
| 20260506170517 | 61 | 72 | 5.0 | 9.0 | 0.00 | 0.00 | 0.00 | 53 | 1016.3 |
| 20260506165517 | 60 | 110 | 4.0 | 8.0 | 0.00 | 0.00 | 0.00 | 55 | 1016.5 |
| 20260506164517 | 59 | 92 | 4.0 | 8.0 | 0.00 | 0.00 | 0.00 | 56 | 1016.5 |
| 20260506163538 | 57 | 94 | 3.0 | 10.0 | 0.00 | 0.00 | 0.00 | 58 | 1016.5 |
| 20260506162517 | 57 | 69 | 4.0 | 10.0 | 0.00 | 0.00 | 0.00 | 58 | 1016.8 |
| 20260506161518 | 57 | 69 | 5.0 | 10.0 | 0.00 | 0.00 | 0.00 | 58 | 1016.5 |
| 20260506160538 | 57 | 57 | 4.0 | 10.0 | 0.00 | 0.00 | 0.00 | 59 | 1016.7 |
| 20260506155518 | 57 | 27 | 3.0 | 8.0 | 0.00 | 0.00 | 0.00 | 59 | 1016.5 |
| 20260506154518 | 57 | 18 | 3.0 | 6.0 | 0.00 | 0.00 | 0.00 | 59 | 1016.0 |
| 20260506153518 | 56 | 75 | 5.0 | 10.0 | 0.00 | 0.00 | 0.00 | 58 | 1015.9 |
| 20260506152536 | 55 | 66 | 4.0 | 10.0 | 0.00 | 0.00 | 0.00 | 60 | 1015.5 |
| 20260506151516 | 54 | 62 | 4.0 | 9.0 | 0.00 | 0.00 | 0.00 | 61 | 1015.3 |
| 20260506150516 | 54 | 53 | 5.0 | 10.0 | 0.00 | 0.00 | 0.00 | 62 | 1015.3 |
| 20260506145516 | 54 | 75 | 6.0 | 11.0 | 0.00 | 0.00 | 0.00 | 62 | 1015.3 |
| 20260506144516 | 53 | 62 | 4.0 | 9.0 | 0.00 | 0.00 | 0.00 | 64 | 1015.4 |
| 20260506143516 | 53 | 70 | 6.0 | 14.0 | 0.00 | 0.00 | 0.00 | 64 | 1015.6 |
| 20260506142517 | 52 | 73 | 6.0 | 14.0 | 0.00 | 0.00 | 0.00 | 66 | 1015.3 |
| 20260506141517 | 52 | 50 | 5.0 | 9.0 | 0.00 | 0.00 | 0.00 | 68 | 1015.4 |
| 20260506135517 | 51 | 47 | 4.0 | 9.0 | 0.00 | 0.00 | 0.00 | 71 | 1015.6 |
| 20260506134517 | 51 | 44 | 4.0 | 9.0 | 0.00 | 0.00 | 0.00 | 71 | 1015.6 |
| 20260506133517 | 51 | 16 | 5.0 | 11.0 | 0.00 | 0.00 | 0.00 | 70 | 1015.8 |
| 20260506132517 | 51 | 25 | 4.0 | 8.0 | 0.00 | 0.00 | 0.00 | 71 | 1015.9 |
| 20260506131517 | 51 | 56 | 4.0 | 8.0 | 0.00 | 0.00 | 0.00 | 74 | 1015.7 |
| 20260506130517 | 50 | 47 | 3.0 | 7.0 | 0.00 | 0.00 | 0.00 | 76 | 1015.7 |
| 20260506125518 | 50 | 58 | 4.0 | 8.0 | 0.00 | 0.00 | 0.00 | 77 | 1015.4 |
| 20260506124518 | 49 | 42 | 4.0 | 9.0 | 0.00 | 0.00 | 0.00 | 79 | 1015.6 |
| 20260506123518 | 49 | 15 | 3.0 | 7.0 | 0.00 | 0.00 | 0.00 | 80 | 1015.4 |
| 20260506122518 | 49 | 20 | 3.0 | 5.0 | 0.00 | 0.00 | 0.00 | 80 | 1015.4 |
| 20260506121518 | 49 | 18 | 2.0 | 5.0 | 0.00 | 0.00 | 0.00 | 80 | 1015.3 |
| 20260506120518 | 49 | 33 | 3.0 | 7.0 | 0.00 | 0.00 | 0.00 | 80 | 1014.9 |
| 20260506115518 | 49 | 4 | 2.0 | 4.0 | 0.00 | 0.00 | 0.00 | 80 | 1014.9 |
| 20260506114518 | 49 | 11 | 3.0 | 5.0 | 0.00 | 0.00 | 0.00 | 80 | 1014.9 |
| 20260506113518 | 49 | 10 | 3.0 | 4.0 | 0.00 | 0.00 | 0.00 | 79 | 1015.1 |
| 20260506112539 | 49 | 13 | 3.0 | 5.0 | 0.00 | 0.00 | 0.00 | 79 | 1015.0 |
| 20260506111519 | 49 | 9 | 3.0 | 6.0 | 0.00 | 0.00 | 0.00 | 79 | 1014.9 |
| 20260506110519 | 49 | 16 | 2.0 | 3.0 | 0.00 | 0.00 | 0.00 | 79 | 1014.9 |
| 20260506105519 | 49 | 5 | 2.0 | 4.0 | 0.00 | 0.00 | 0.00 | 79 | 1014.5 |
| 20260506104519 | 49 | 5 | 3.0 | 5.0 | 0.00 | 0.00 | 0.00 | 79 | 1014.4 |
| 20260506103539 | 50 | 11 | 3.0 | 5.0 | 0.00 | 0.00 | 0.00 | 78 | 1014.4 |
| 20260506102520 | 50 | 5 | 2.0 | 3.0 | 0.00 | 0.00 | 0.00 | 78 | 1014.3 |
| 20260506101521 | 50 | 7 | 2.0 | 4.0 | 0.00 | 0.00 | 0.00 | 77 | 1014.2 |
| 20260506100520 | 50 | 5 | 3.0 | 4.0 | 0.00 | 0.00 | 0.00 | 77 | 1014.0 |
| 20260506095520 | 50 | 358 | 2.0 | 5.0 | 0.00 | 0.00 | 0.00 | 77 | 1013.9 |
| 20260506094520 | 50 | 1 | 2.0 | 5.0 | 0.00 | 0.00 | 0.00 | 77 | 1014.1 |
| 20260506093520 | 50 | 350 | 2.0 | 3.0 | 0.00 | 0.00 | 0.00 | 77 | 1013.7 |
| 20260506092520 | 50 | 2 | 2.0 | 3.0 | 0.00 | 0.00 | 0.00 | 77 | 1013.3 |
| 20260506091520 | 50 | 6 | 2.0 | 4.0 | 0.00 | 0.00 | 0.00 | 77 | 1013.1 |
| 20260506090521 | 50 | 6 | 2.0 | 3.0 | 0.00 | 0.00 | 0.00 | 76 | 1012.6 |
| 20260506085521 | 50 | 6 | 3.0 | 4.0 | 0.00 | 0.00 | 0.00 | 75 | 1012.3 |
| 20260506084521 | 51 | 360 | 2.0 | 3.0 | 0.00 | 0.00 | 0.00 | 73 | 1012.2 |
| 20260506083521 | 51 | 17 | 2.0 | 3.0 | 0.00 | 0.00 | 0.00 | 72 | 1012.2 |
| 20260506082521 | 51 | 15 | 2.0 | 6.0 | 0.00 | 0.00 | 0.00 | 71 | 1012.0 |